Location: Casilda
(33.0440°S, 61.1680°W)
Time: 12:54:55
(UTC-03:00)

ISS - Pass Details

Date: 22 January 2020
Orbit: 415 x 421 km, 51.6° (Epoch: 18 January)

Event Time Altitude Azimuth Distance (km) Brightness Sun altitude
Exits shadow 05:45:50 - 345° (NNW) 2,277 -0.4 -6.8°
Reaches altitude 10° 05:48:02 10° 0° (N) 1,491 -1.2 -6.4°
Maximum altitude 05:50:40 21° 52° (NE) 994 -1.6 -5.9°
Drops below altitude 10° 05:53:19 10° 103° (ESE) 1,510 0.7 -5.4°
Sets 05:55:44 0° 119° (ESE) 2,383 3.2 -5.0°
